Alva, OK

12:17 PM CDT on July 26, 2017 (GMT -0500)
Alva Regional

Weather History for KAVK - December, 2013

Change the Weather History Date:

Sunday, December 8, 2013

  Actual Average Record
Temperature  
Mean Temperature 22 °F -  
Max Temperature 28 °F 48 °F 75 °F (2008)
Min Temperature 17 °F 26 °F 1 °F (2005)
Degree Days  
Heating Degree Days 42    
Moisture  
Dew Point 15 °F    
Average Humidity 73    
Maximum Humidity 93    
Minimum Humidity 58    
Precipitation  
Precipitation 0.00 in - - ()
Sea Level Pressure  
Sea Level Pressure 30.06 in    
Wind  
Wind Speed 11 mph (SSW)    
Max Wind Speed 15 mph    
Max Gust Speed 17 mph    
Visibility 9 miles    
Events      
Averages and records for this station are not official NWS values.
T = Trace of Precipitation, MM = Missing Value Source: NWS Daily Summary

Daily Weather History Graph

Daily Weather History Graph

Search for Another Location

Airport or City:

Trip Planner

Search our weather history database for the weather conditions in past years. The results will help you decide how hot, cold, wet, or windy it might be!

Date:

Astronomy

Dec. 08, 2013 Rise Set
Actual Time 7:35 AM CST 5:18 PM CST
Civil Twilight 7:06 AM CST 5:47 PM CST
Nautical Twilight 6:34 AM CST 6:19 PM CST
Astronomical Twilight 6:02 AM CST 6:50 PM CST
Moon 12:03 PM CST (12/8) No Moon Set
Length of Visible Light 10h 40m
Length of Day
9h 43m
Waxing Crescent, 40% of the Moon is Illuminated
Dec 8
Waxing Crescent
Dec 9
First Quarter
Dec 17
Full
Dec 25
Last Quarter
Jan 1
New

Hourly Weather History & Observations

Time (CST) Temp. Windchill Dew Point Humidity Pressure Visibility Wind Dir Wind Speed Gust Speed Precip Events Conditions
12:10 AM 19.4 °F 7.2 °F 6.8 °F 58% 30.22 in 10.0 mi SSE 11.5 mph - N/A   Overcast
12:30 AM 19.4 °F 7.2 °F 6.8 °F 58% 30.20 in 10.0 mi SE 11.5 mph - N/A   Overcast
12:50 AM 19.4 °F 6.0 °F 6.8 °F 58% 30.18 in 10.0 mi SE 13.8 mph - N/A   Overcast
1:10 AM 19.4 °F 7.2 °F 6.8 °F 58% 30.17 in 10.0 mi SE 11.5 mph - N/A   Overcast
1:30 AM 19.4 °F 7.9 °F 6.8 °F 58% 30.16 in 10.0 mi SE 10.4 mph - N/A   Overcast
1:50 AM 19.4 °F 6.6 °F 6.8 °F 58% 30.14 in 10.0 mi SSE 12.7 mph - N/A   Overcast
2:10 AM 19.4 °F 8.6 °F 8.6 °F 63% 30.14 in 10.0 mi SSE 9.2 mph - N/A   Overcast
2:30 AM 19.4 °F 7.2 °F 8.6 °F 63% 30.13 in 10.0 mi SSE 11.5 mph - N/A   Overcast
2:50 AM 19.4 °F 6.0 °F 8.6 °F 63% 30.11 in 10.0 mi SSE 13.8 mph - N/A   Overcast
3:10 AM 19.4 °F 6.0 °F 8.6 °F 63% 30.10 in 10.0 mi SSE 13.8 mph - N/A   Overcast
3:30 AM 19.4 °F 6.0 °F 10.4 °F 68% 30.08 in 10.0 mi South 13.8 mph - N/A   Overcast
3:50 AM 19.4 °F 6.0 °F 10.4 °F 68% 30.08 in 10.0 mi SSE 13.8 mph - N/A   Overcast
4:10 AM 19.4 °F 6.0 °F 10.4 °F 68% 30.07 in 10.0 mi SSE 13.8 mph - N/A   Overcast
4:30 AM 17.6 °F 5.0 °F 12.2 °F 79% 30.07 in 10.0 mi SSE 11.5 mph - N/A   Overcast
4:50 AM 17.6 °F 5.0 °F 12.2 °F 79% 30.05 in 10.0 mi SSE 11.5 mph - N/A   Overcast
5:10 AM 17.6 °F 5.0 °F 14.0 °F 86% 30.05 in 10.0 mi SSE 11.5 mph - N/A   Overcast
5:30 AM 17.6 °F 5.7 °F 14.0 °F 86% 30.04 in 8.0 mi SSE 10.4 mph - N/A   Overcast
5:50 AM 17.6 °F 4.3 °F 14.0 °F 86% 30.04 in 8.0 mi SSE 12.7 mph - N/A   Overcast
6:10 AM 17.6 °F 5.7 °F 14.0 °F 86% 30.04 in 5.0 mi SSE 10.4 mph - N/A   Overcast
6:30 AM 17.6 °F 5.0 °F 15.8 °F 93% 30.04 in 5.0 mi SSE 11.5 mph - N/A   Overcast
6:50 AM 17.6 °F 5.7 °F 15.8 °F 93% 30.04 in 5.0 mi South 10.4 mph - N/A   Overcast
7:10 AM 17.6 °F 5.7 °F 15.8 °F 93% 30.04 in 4.0 mi South 10.4 mph - N/A   Overcast
7:30 AM 19.4 °F 7.9 °F 15.8 °F 86% 30.04 in 4.0 mi South 10.4 mph - N/A   Overcast
7:50 AM 19.4 °F 7.9 °F 15.8 °F 86% 30.04 in 5.0 mi South 10.4 mph - N/A   Overcast
8:10 AM 19.4 °F 8.6 °F 15.8 °F 86% 30.02 in 4.0 mi South 9.2 mph - N/A   Overcast
8:30 AM 19.4 °F 6.6 °F 17.6 °F 93% 30.02 in 5.0 mi South 12.7 mph - N/A   Overcast
8:50 AM 19.4 °F 6.0 °F 15.8 °F 86% 30.01 in 7.0 mi South 13.8 mph - N/A   Overcast
9:10 AM 19.4 °F 5.5 °F 15.8 °F 86% 30.02 in 7.0 mi SSW 15.0 mph - N/A   Overcast
9:30 AM 19.4 °F 6.6 °F 15.8 °F 86% 30.00 in 7.0 mi SSW 12.7 mph - N/A   Overcast
9:50 AM 21.2 °F 8.3 °F 15.8 °F 80% 30.00 in 7.0 mi SSW 13.8 mph - N/A   Overcast
10:10 AM 21.2 °F 9.5 °F 15.8 °F 80% 30.00 in 7.0 mi South 11.5 mph - N/A   Overcast
10:30 AM 23.0 °F 12.4 °F 15.8 °F 74% 30.00 in 8.0 mi SSW 10.4 mph - N/A   Overcast
10:50 AM 23.0 °F 12.4 °F 15.8 °F 74% 29.99 in 8.0 mi South 10.4 mph - N/A   Overcast
11:10 AM 23.0 °F 11.1 °F 15.8 °F 74% 29.99 in 9.0 mi SSW 12.7 mph 17.3 mph N/A   Overcast
11:30 AM 24.8 °F 14.0 °F 15.8 °F 69% 29.98 in 9.0 mi SSW 11.5 mph 17.3 mph N/A   Overcast
11:50 AM 24.8 °F 13.4 °F 15.8 °F 69% 29.97 in 9.0 mi SSW 12.7 mph - N/A   Overcast
12:10 PM 26.6 °F 15.2 °F 17.6 °F 69% 29.96 in 9.0 mi SSW 13.8 mph - N/A   Overcast
12:30 PM 26.6 °F 16.2 °F 17.6 °F 69% 29.95 in 9.0 mi SSW 11.5 mph 17.3 mph N/A   Overcast
12:50 PM 26.6 °F 15.7 °F 17.6 °F 69% 29.93 in 9.0 mi SSW 12.7 mph 17.3 mph N/A   Overcast
1:10 PM 26.6 °F 15.7 °F 17.6 °F 69% 29.93 in 9.0 mi SSW 12.7 mph - N/A   Overcast
1:30 PM 28.4 °F 18.5 °F 17.6 °F 64% 29.92 in 10.0 mi SW 11.5 mph - N/A   Overcast
1:50 PM 28.4 °F 19.7 °F 17.6 °F 64% 29.92 in 10.0 mi SW 9.2 mph - N/A   Overcast
2:10 PM 28.4 °F 18.5 °F 17.6 °F 64% 29.93 in 9.0 mi SW 11.5 mph - N/A   Overcast
2:30 PM 28.4 °F 20.4 °F 17.6 °F 64% 29.93 in 10.0 mi SW 8.1 mph - N/A   Overcast
2:50 PM 28.4 °F 21.2 °F 17.6 °F 64% 29.93 in 9.0 mi South 6.9 mph - N/A   Overcast
3:10 PM 28.4 °F 20.4 °F 17.6 °F 64% 29.93 in 9.0 mi South 8.1 mph - N/A   Overcast
3:30 PM 28.4 °F 22.2 °F 17.6 °F 64% 29.94 in 10.0 mi SW 5.8 mph - N/A   Overcast
3:50 PM 28.4 °F 23.3 °F 17.6 °F 64% 29.96 in 9.0 mi WSW 4.6 mph - N/A   Scattered Clouds
4:10 PM 28.4 °F 24.6 °F 17.6 °F 64% 29.97 in 9.0 mi West 3.5 mph - N/A   Clear
4:30 PM 28.4 °F 24.6 °F 17.6 °F 64% 29.97 in 9.0 mi SW 3.5 mph - N/A   Clear
4:50 PM 28.4 °F 23.3 °F 17.6 °F 64% 29.99 in 10.0 mi SW 4.6 mph - N/A   Clear
5:10 PM 26.6 °F - 15.8 °F 64% 30.00 in 10.0 mi Calm Calm - N/A   Clear
5:30 PM 24.8 °F - 15.8 °F 69% 30.00 in 9.0 mi Calm Calm - N/A   Clear
5:50 PM 24.8 °F - 15.8 °F 69% 30.02 in 10.0 mi Calm Calm - N/A   Partly Cloudy
6:10 PM 24.8 °F - 15.8 °F 69% 30.04 in 10.0 mi Calm Calm - N/A   Mostly Cloudy
6:30 PM 24.8 °F 19.1 °F 15.8 °F 69% 30.05 in 9.0 mi WSW 4.6 mph - N/A   Overcast
6:50 PM 24.8 °F 19.1 °F 15.8 °F 69% 30.08 in 10.0 mi West 4.6 mph - N/A   Overcast
7:10 PM 24.8 °F 19.1 °F 15.8 °F 69% 30.10 in 9.0 mi NW 4.6 mph - N/A   Overcast
7:30 PM 26.6 °F 22.6 °F 17.6 °F 69% 30.12 in 10.0 mi NNW 3.5 mph - N/A   Overcast
7:50 PM 26.6 °F 19.1 °F 17.6 °F 69% 30.12 in 10.0 mi North 6.9 mph - N/A   Overcast
8:10 PM 26.6 °F 16.8 °F 19.4 °F 74% 30.13 in 10.0 mi North 10.4 mph - N/A   Overcast
8:30 PM 26.6 °F 15.7 °F 19.4 °F 74% 30.14 in 8.0 mi North 12.7 mph - N/A   Overcast
8:50 PM 26.6 °F 15.7 °F 19.4 °F 74% 30.14 in 8.0 mi North 12.7 mph - N/A   Overcast
9:10 PM 24.8 °F 13.4 °F 19.4 °F 80% 30.15 in 8.0 mi North 12.7 mph - N/A   Overcast
9:30 PM 24.8 °F 14.0 °F 19.4 °F 80% 30.15 in 8.0 mi North 11.5 mph - N/A   Overcast
9:50 PM 24.8 °F 14.6 °F 17.6 °F 74% 30.17 in 10.0 mi North 10.4 mph - N/A   Overcast
10:10 PM 23.0 °F 12.4 °F 15.8 °F 74% 30.18 in 10.0 mi North 10.4 mph - N/A   Overcast
10:30 PM 23.0 °F 13.1 °F 15.8 °F 74% 30.19 in 10.0 mi NNW 9.2 mph - N/A   Overcast
10:50 PM 23.0 °F 13.1 °F 15.8 °F 74% 30.19 in 10.0 mi North 9.2 mph - N/A   Overcast
11:10 PM 19.4 °F 9.5 °F 14.0 °F 80% 30.20 in 10.0 mi North 8.1 mph - N/A   Overcast
11:30 PM 19.4 °F 9.5 °F 14.0 °F 80% 30.20 in 10.0 mi North 8.1 mph - N/A   Partly Cloudy
11:50 PM 17.6 °F 7.3 °F 12.2 °F 79% 30.21 in 10.0 mi North 8.1 mph - N/A   Clear